FW6626 Weather Reports


time (UTC)temp
C
wind
direction
speed
KPH
gust
KPH
rain 1hr
cm
rain 24hr
cm
rain mn
cm
humidity
%
barometer
mb
20260831191608 26 186 6.4 17.7 0.00 0.00 0.00 69 1014.7
20260831190108 26 198 6.4 17.7 0.00 0.00 0.00 69 1014.8
20260831184601 25 185 4.8 17.7 0.00 0.00 0.00 70 1014.9
20260831183104 26 241 8.0 19.3 0.00 0.00 0.00 70 1014.8
20260831181555 25 360 8.0 16.1 0.00 0.00 0.00 71 1015.0
20260831180107 25 277 6.4 16.1 0.00 0.00 0.00 71 1014.8
20260831174601 25 225 6.4 14.5 0.00 0.00 0.00 71 1014.6
20260831173057 25 360 8.0 16.1 0.00 0.00 0.00 71 1014.5
20260831171600 26 180 6.4 16.1 0.00 0.00 0.00 67 1014.4
20260831170105 25 360 4.8 14.5 0.00 0.00 0.00 69 1014.5
20260831164601 26 178 1.6 9.7 0.00 0.00 0.00 68 1014.5
20260831163058 26 188 1.6 12.9 0.00 0.00 0.00 67 1014.4
20260831161553 26 121 6.4 12.9 0.00 0.00 0.00 65 1014.4
20260831160059 26 153 3.2 11.3 0.00 0.00 0.00 66 1014.4
20260831154617 24 108 3.2 9.7 0.00 0.00 0.00 73 1014.4
20260831153114 23 150 0.0 3.2 0.00 0.00 0.00 75 1014.3
20260831151605 22 150 0.0 3.2 0.00 0.00 0.00 76 1014.3
20260831150059 22 0 0.0 3.2 0.00 0.00 0.00 78 1014.2
20260831144630 21 0 0.0 1.6 0.00 0.00 0.00 79 1014.1
20260831143104 21 0 0.0 3.2 0.00 0.00 0.00 80 1014.1
20260831141557 21 150 0.0 3.2 0.00 0.00 0.00 81 1013.8
20260831140055 21 0 0.0 0.0 0.00 0.00 0.00 81 1013.7
20260831134600 21 0 0.0 1.6 0.00 0.00 0.00 81 1013.4
20260831133102 21 0 0.0 1.6 0.00 0.00 0.00 81 1013.2
20260831131603 21 0 0.0 1.6 0.00 0.00 0.00 81 1013.1
20260831130109 21 150 1.6 3.2 0.00 0.00 0.00 81 1013.2
20260831124603 21 150 1.6 4.8 0.00 0.00 0.00 81 1013.0
20260831123058 21 149 1.6 9.7 0.00 0.00 0.00 81 1013.1
20260831121603 21 148 3.2 8.0 0.00 0.00 0.00 82 1013.0
20260831120100 21 0 1.6 4.8 0.00 0.00 0.00 82 1013.1
20260831114600 21 150 0.0 3.2 0.00 0.00 0.00 82 1013.0
20260831113110 21 150 0.0 9.7 0.00 0.00 0.00 83 1013.0
20260831111604 20 84 3.2 8.0 0.00 0.00 0.00 85 1013.1
20260831110059 20 92 1.6 6.4 0.00 0.00 0.00 85 1013.1
20260831104603 20 92 1.6 6.4 0.00 0.00 0.00 86 1013.2
20260831103058 20 92 0.0 6.4 0.00 0.00 0.00 85 1013.1
20260831101555 20 131 3.2 8.0 0.00 0.00 0.00 85 1013.2
20260831100122 21 213 1.6 8.0 0.00 0.00 0.00 86 1013.2
20260831094556 20 161 4.8 8.0 0.00 0.00 0.00 86 1013.1
20260831093101 20 164 1.6 6.4 0.00 0.00 0.00 86 1013.1
20260831091603 20 165 1.6 3.2 0.00 0.00 0.00 87 1013.1
20260831090056 20 165 1.6 3.2 0.00 0.00 0.00 87 1013.1
20260831084634 20 165 1.6 8.0 0.00 0.00 0.00 87 1013.3
20260831083104 20 166 3.2 6.4 0.00 0.00 0.00 87 1013.1
20260831081601 21 166 3.2 8.0 0.00 0.00 0.00 86 1013.2
20260831080128 21 167 3.2 6.4 0.00 0.00 0.00 86 1013.3
20260831074609 21 167 3.2 6.4 0.00 0.00 0.00 86 1013.4
20260831073105 20 167 4.8 8.0 0.00 0.00 0.00 87 1013.3
20260831071608 20 238 3.2 6.4 0.00 0.00 0.00 87 1013.3
20260831070106 20 242 3.2 6.4 0.00 0.00 0.00 86 1013.2
20260831064604 20 242 1.6 4.8 0.00 0.00 0.00 86 1013.3
20260831063112 21 242 1.6 4.8 0.00 0.00 0.00 86 1013.1
20260831061557 21 242 1.6 3.2 0.00 0.00 0.00 86 1013.0
20260831060105 21 0 1.6 4.8 0.00 0.00 0.00 86 1013.1
20260831054601 21 244 1.6 4.8 0.00 0.00 0.00 85 1013.1
20260831053124 21 244 1.6 4.8 0.00 0.00 0.00 86 1013.2
20260831051554 21 246 0.0 3.2 0.00 0.00 0.00 85 1013.1
20260831050117 21 0 0.0 1.6 0.00 0.00 0.00 84 1013.1
20260831044600 21 246 0.0 3.2 0.00 0.00 0.00 84 1013.0
20260831043056 21 246 0.0 4.8 0.00 0.00 0.00 84 1012.9
20260831041620 21 245 1.6 6.4 0.00 0.00 0.00 83 1012.8
20260831034559 22 244 3.2 11.3 0.00 0.00 0.00 83 1012.5
20260831033113 22 236 1.6 8.0 0.00 0.00 0.00 83 1012.4
20260831031558 22 234 4.8 11.3 0.00 0.00 0.00 82 1012.1
20260831024606 22 223 3.2 9.7 0.00 0.00 0.00 82 1012.1
20260831023059 22 230 3.2 6.4 0.00 0.00 0.00 81 1011.9
20260831021558 23 264 1.6 8.0 0.00 0.00 0.00 81 1011.7
20260831020056 23 233 3.2 11.3 0.00 0.00 0.00 80 1011.6
20260831014604 23 244 1.6 12.9 0.00 0.00 0.00 81 1011.6
20260831013059 23 246 3.2 12.9 0.00 0.00 0.00 80 1011.5
20260831011558 24 247 6.4 14.5 0.00 0.00 0.00 78 1011.6
20260831010113 25 241 4.8 16.1 0.00 0.00 0.00 75 1011.7
20260831004606 25 237 4.8 16.1 0.00 0.00 0.00 74 1011.6
20260831003107 25 360 6.4 14.5 0.00 0.00 0.00 74 1011.8
20260831001604 25 360 8.0 17.7 0.00 0.00 0.00 74 1011.8
20260830234606 25 220 6.4 20.9 0.00 0.00 0.00 72 1011.7
20260830233104 26 252 9.7 17.7 0.00 0.00 0.00 71 1011.8
20260830231611 26 360 8.0 16.1 0.00 0.00 0.00 71 1011.9
20260830230058 26 253 6.4 17.7 0.00 0.00 0.00 72 1011.8
20260830224607 26 228 6.4 16.1 0.00 0.00 0.00 70 1012.0
20260830223107 26 244 9.7 20.9 0.00 0.00 0.00 72 1012.2
20260830221601 26 261 8.0 19.3 0.00 0.00 0.00 70 1012.5
20260830220100 26 237 11.3 16.1 0.00 0.00 0.00 71 1012.5
20260830214603 26 233 9.7 20.9 0.00 0.00 0.00 70 1012.4
20260830213101 26 274 6.4 22.5 0.00 0.00 0.00 70 1012.7
20260830211558 26 360 8.0 19.3 0.00 0.00 0.00 70 1012.7
20260830210119 26 360 9.7 22.5 0.00 0.00 0.00 71 1012.9
20260830204611 26 360 9.7 20.9 0.00 0.00 0.00 71 1013.1
20260830203059 26 360 9.7 20.9 0.00 0.00 0.00 72 1013.1
20260830201559 26 360 9.7 17.7 0.00 0.00 0.00 71 1013.1
20260830200112 26 360 9.7 22.5 0.00 0.00 0.00 71 1013.1
20260830194645 26 249 8.0 24.1 0.00 0.00 0.00 70 1013.2
20260830193102 26 275 8.0 19.3 0.00 0.00 0.00 70 1013.4